Weather History for Pisco, Peru

Change the Weather History Date:

Wednesday, June 19, 2013

  Actual Average Record
Temperature  
Mean Temperature 65 °F -  
Max Temperature 75 °F 69 °F - ()
Min Temperature 55 °F 56 °F - ()
Growing Degree Days 15 (Base 50)    
Moisture  
Dew Point 57 °F    
Average Humidity 78    
Maximum Humidity 95    
Minimum Humidity 54    
Precipitation  
Precipitation 0.00 in 0.00 in - ()
Sea Level Pressure  
Sea Level Pressure 29.88 in    
Wind  
Wind Speed 7 mph ()    
Max Wind Speed 30 mph    
Max Gust Speed -    
Visibility 3.5 miles    
Events      
T = Trace of Precipitation, MM = Missing Value Source: Averaged Metar Reports

Daily Weather History Graph

Daily Weather History Graph

Search for Another Location

Airport:

Trip Planner

Search our weather history database for the weather conditions in past years. The results will help you decide how hot, cold, wet, or windy it might be!

Date:

Astronomy

Jun. 19, 2013 Rise Set
Actual Time 6:26 AM PET 5:45 PM PET
Civil Twilight 6:03 AM PET 6:08 PM PET
Nautical Twilight 5:37 AM PET 6:35 PM PET
Astronomical Twilight 5:10 AM PET 7:02 PM PET
Moon 2:18 PM PET (6/19) 2:18 AM PET (6/19)
Length of Visible Light 12h 05m
Length of Day
11h 18m
Waxing Gibbous, 80% of the Moon is Illuminated
Jun 19
Waxing Gibbous
Jun 23
Full
Jun 29
Last Quarter
Jul 8
New
Jul 15
First Quarter

Hourly Weather History & Observations

Time (PET) Temp. Dew Point Humidity Pressure Visibility Wind Dir Wind Speed Gust Speed Precip Events Conditions
12:00 AM 60.8 °F 57.2 °F 88% 29.95 in - Calm Calm - N/A   Clear
1:00 AM 59 °F 55 °F 82% 29.94 in 6 mi Calm Calm - -   Partly Cloudy
1:00 AM 59.0 °F 55.4 °F 88% 29.95 in - Calm Calm - N/A   Clear
2:00 AM 59.0 °F 55.4 °F 88% 29.92 in 6.2 mi ESE 3.5 mph - N/A   Partly Cloudy
3:00 AM 59.0 °F 55.4 °F 88% 29.92 in 5.0 mi South 4.6 mph - N/A   Scattered Clouds
4:00 AM 58 °F 54 °F 84% 29.89 in 4 mi SSE 4.6 mph - -   Mist
4:00 AM 57.2 °F 55.4 °F 94% 29.89 in 3.7 mi SSE 4.6 mph - N/A   Scattered Clouds
5:00 AM 57.2 °F 55.4 °F 94% 29.92 in 3.7 mi Variable 2.3 mph - N/A   Scattered Clouds
6:00 AM 57.2 °F 55.4 °F 94% 29.92 in 3.7 mi ESE 4.6 mph - N/A   Scattered Clouds
7:00 AM 54 °F 53 °F 95% 29.93 in 4 mi Calm Calm - -   Mist
7:00 AM 55.4 °F 51.8 °F 88% 29.95 in 4.3 mi Calm Calm - N/A   Scattered Clouds
7:10 AM 57.2 °F 53.6 °F 88% 29.95 in 3.7 mi Calm Calm - N/A   Smoke
8:00 AM 59.0 °F 55.4 °F 88% 29.95 in 4.3 mi Variable 1.2 mph - N/A   Unknown
9:00 AM 66.2 °F 57.2 °F 73% 29.95 in 5.0 mi SSW 3.5 mph - N/A   Unknown
10:00 AM 68 °F 57 °F 60% 29.95 in 6 mi West 6.9 mph - -   Partly Cloudy
10:00 AM 68.0 °F 57.2 °F 68% 29.95 in - West 6.9 mph - N/A   Clear
11:00 AM 71.6 °F 59.0 °F 64% 29.92 in - WSW 10.4 mph - N/A   Clear
12:00 PM 73.4 °F 59.0 °F 61% 29.89 in 5.0 mi WSW 17.3 mph - N/A   Unknown
12:01 PM 73.4 °F 59.0 °F 61% 29.89 in 2.5 mi WSW 24.2 mph - N/A   Unknown
12:25 PM 73.4 °F 59.0 °F 61% 29.86 in 1.2 mi SW 25.3 mph - N/A   Unknown
1:00 PM 71.6 °F 59.0 °F 64% 29.86 in 0.9 mi SSW 28.8 mph - N/A   Unknown
2:00 PM 71.6 °F 59.0 °F 64% 29.83 in 0.9 mi SW 28.8 mph - N/A   Unknown
3:00 PM 69.8 °F 57.2 °F 64% 29.80 in 0.9 mi WSW 27.6 mph - N/A   Unknown
4:00 PM 69 °F 56 °F 54% 29.78 in 0 mi SSW 28.8 mph - -   Sandstorm
4:00 PM 68.0 °F 55.4 °F 64% 29.80 in 0.5 mi SSW 29.9 mph - N/A   Unknown
5:00 PM 66.2 °F 57.2 °F 73% 29.80 in 0.6 mi SSW 27.6 mph - N/A   Unknown
5:10 PM 66.2 °F 57.2 °F 73% 29.80 in 1.6 mi SSW 26.5 mph - N/A   Unknown
6:00 PM 64.4 °F 57.2 °F 77% 29.80 in 1.6 mi SSW 27.6 mph - N/A   Unknown
6:34 PM 64.4 °F 57.2 °F 77% 29.83 in 3.7 mi SW 16.1 mph - N/A   Unknown
7:00 PM 65 °F 57 °F 69% 29.81 in 4 mi SSE 6.9 mph - -   Haze
7:00 PM 64.4 °F 57.2 °F 77% 29.83 in 3.7 mi Variable 6.9 mph - N/A   Unknown
8:00 PM 64.4 °F 59.0 °F 83% 29.86 in 4.3 mi Calm Calm - N/A   Unknown
9:00 PM 64.4 °F 59.0 °F 83% 29.86 in 5.0 mi WNW 5.8 mph - N/A   Unknown
10:00 PM 63 °F 60 °F 85% 29.86 in 5 mi ENE 3.5 mph - -   Mist
10:00 PM 62.6 °F 59.0 °F 88% 29.86 in 5.0 mi ENE 3.5 mph - N/A   Unknown
11:00 PM 62.6 °F 59.0 °F 88% 29.86 in 5.0 mi ENE 3.5 mph - N/A   Unknown